| time (UTC) | temp F | wind direction | speed MPH | gust MPH | rain 1hr in | rain 24hr in | rain mn in | humidity % | barometer mb |
| 20260507084508 | 42 | 292 | 0.0 | 0.0 | 0.00 | 0.45 | 0.02 | 90 | 1008.9 |
| 20260507083006 | 43 | 292 | 0.0 | 1.0 | 0.00 | 0.45 | 0.02 | 90 | 1008.9 |
| 20260507081507 | 43 | 292 | 1.0 | 2.0 | 0.00 | 0.45 | 0.02 | 89 | 1009.2 |
| 20260507080003 | 43 | 292 | 0.0 | 3.0 | 0.00 | 0.45 | 0.02 | 90 | 1009.3 |
| 20260507074500 | 44 | 292 | 2.0 | 3.0 | 0.00 | 0.45 | 0.02 | 90 | 1009.4 |
| 20260507073102 | 44 | 288 | 1.0 | 3.0 | 0.00 | 0.45 | 0.02 | 92 | 1009.4 |
| 20260507071557 | 44 | 288 | 0.0 | 0.0 | 0.00 | 0.45 | 0.02 | 93 | 1009.3 |
| 20260507070104 | 44 | 288 | 0.0 | 0.0 | 0.00 | 0.45 | 0.02 | 93 | 1009.5 |
| 20260507064555 | 44 | 288 | 0.0 | 1.0 | 0.01 | 0.45 | 0.02 | 93 | 1009.7 |
| 20260507063055 | 44 | 288 | 0.0 | 0.0 | 0.01 | 0.45 | 0.02 | 92 | 1009.3 |
| 20260507061554 | 44 | 288 | 0.0 | 2.0 | 0.01 | 0.45 | 0.02 | 92 | 1009.4 |
| 20260507060059 | 44 | 288 | 0.0 | 2.0 | 0.00 | 0.44 | 0.01 | 92 | 1009.3 |
| 20260507054554 | 44 | 288 | 0.0 | 1.0 | 0.00 | 0.44 | 0.01 | 92 | 1009.3 |
| 20260507053051 | 44 | 288 | 0.0 | 1.0 | 0.00 | 0.44 | 0.01 | 91 | 1009.1 |
| 20260507051549 | 44 | 288 | 0.0 | 2.0 | 0.01 | 0.44 | 0.01 | 91 | 1009.0 |
| 20260507050047 | 44 | 288 | 0.0 | 2.0 | 0.01 | 0.44 | 0.01 | 91 | 1008.7 |
| 20260507044557 | 45 | 288 | 1.0 | 2.0 | 0.01 | 0.44 | 0.01 | 90 | 1008.3 |
| 20260507043056 | 45 | 288 | 0.0 | 2.0 | 0.01 | 0.44 | 0.01 | 90 | 1008.4 |
| 20260507041540 | 45 | 288 | 0.0 | 2.0 | 0.00 | 0.43 | 0.00 | 89 | 1009.0 |
| 20260507040040 | 45 | 288 | 1.0 | 3.0 | 0.00 | 0.43 | 0.00 | 88 | 1009.0 |
| 20260507034538 | 45 | 288 | 1.0 | 2.0 | 0.00 | 0.43 | 0.43 | 89 | 1008.9 |
| 20260507033038 | 45 | 288 | 0.0 | 2.0 | 0.00 | 0.43 | 0.43 | 89 | 1008.7 |
| 20260507031534 | 45 | 288 | 0.0 | 4.0 | 0.00 | 0.43 | 0.43 | 88 | 1008.6 |
| 20260507030031 | 46 | 287 | 1.0 | 3.0 | 0.00 | 0.43 | 0.43 | 88 | 1008.3 |
| 20260507024531 | 46 | 287 | 1.0 | 3.0 | 0.00 | 0.43 | 0.43 | 88 | 1008.6 |
| 20260507023029 | 46 | 287 | 1.0 | 2.0 | 0.00 | 0.43 | 0.43 | 89 | 1008.8 |
| 20260507021529 | 46 | 287 | 0.0 | 4.0 | 0.00 | 0.43 | 0.43 | 89 | 1008.8 |
| 20260507020043 | 46 | 287 | 1.0 | 4.0 | 0.00 | 0.43 | 0.43 | 91 | 1009.1 |
| 20260507014524 | 47 | 287 | 1.0 | 3.0 | 0.00 | 0.43 | 0.43 | 92 | 1009.1 |
| 20260507013024 | 47 | 287 | 1.0 | 3.0 | 0.00 | 0.43 | 0.43 | 92 | 1008.9 |
| 20260507011534 | 47 | 265 | 1.0 | 6.0 | 0.00 | 0.43 | 0.43 | 91 | 1008.8 |
| 20260507010018 | 47 | 296 | 1.0 | 3.0 | 0.00 | 0.43 | 0.43 | 91 | 1008.5 |
| 20260507004514 | 47 | 296 | 0.0 | 2.0 | 0.00 | 0.43 | 0.43 | 91 | 1008.3 |
| 20260507003012 | 48 | 296 | 0.0 | 3.0 | 0.00 | 0.43 | 0.43 | 91 | 1008.1 |
| 20260507001531 | 48 | 296 | 0.0 | 3.0 | 0.00 | 0.43 | 0.43 | 90 | 1007.8 |
| 20260507000013 | 49 | 295 | 2.0 | 4.0 | 0.00 | 0.43 | 0.43 | 91 | 1007.3 |
| 20260506234503 | 50 | 298 | 2.0 | 4.0 | 0.00 | 0.43 | 0.43 | 91 | 1007.2 |
| 20260506233102 | 50 | 293 | 1.0 | 3.0 | 0.00 | 0.43 | 0.43 | 91 | 1007.0 |
| 20260506231607 | 51 | 292 | 1.0 | 4.0 | 0.01 | 0.43 | 0.43 | 91 | 1006.8 |
| 20260506230112 | 51 | 225 | 1.0 | 3.0 | 0.01 | 0.43 | 0.43 | 90 | 1006.4 |
| 20260506224554 | 52 | 294 | 1.0 | 4.0 | 0.01 | 0.43 | 0.43 | 88 | 1006.0 |
| 20260506223050 | 55 | 274 | 2.0 | 8.0 | 0.01 | 0.43 | 0.43 | 84 | 1005.9 |
| 20260506221603 | 60 | 229 | 1.0 | 4.0 | 0.00 | 0.42 | 0.42 | 90 | 1005.1 |
| 20260506220048 | 60 | 248 | 2.0 | 4.0 | 0.00 | 0.42 | 0.42 | 89 | 1004.7 |
| 20260506214551 | 60 | 233 | 2.0 | 5.0 | 0.00 | 0.42 | 0.42 | 90 | 1004.6 |
| 20260506213047 | 60 | 135 | 1.0 | 5.0 | 0.00 | 0.42 | 0.42 | 91 | 1004.5 |
| 20260506211546 | 59 | 217 | 1.0 | 4.0 | 0.00 | 0.42 | 0.42 | 92 | 1004.3 |
| 20260506210054 | 59 | 139 | 1.0 | 6.0 | 0.00 | 0.42 | 0.42 | 92 | 1004.2 |
| 20260506204547 | 59 | 196 | 1.0 | 5.0 | 0.00 | 0.42 | 0.42 | 93 | 1004.2 |
| 20260506203044 | 59 | 178 | 2.0 | 5.0 | 0.00 | 0.42 | 0.42 | 93 | 1004.0 |
| 20260506201542 | 59 | 244 | 3.0 | 9.0 | 0.00 | 0.42 | 0.42 | 92 | 1004.0 |
| 20260506200040 | 58 | 189 | 1.0 | 6.0 | 0.00 | 0.42 | 0.42 | 93 | 1004.2 |
| 20260506194540 | 58 | 176 | 1.0 | 5.0 | 0.00 | 0.42 | 0.42 | 93 | 1004.1 |
| 20260506193043 | 58 | 238 | 1.0 | 8.0 | 0.00 | 0.42 | 0.42 | 93 | 1004.3 |
| 20260506191537 | 58 | 150 | 2.0 | 8.0 | 0.01 | 0.42 | 0.42 | 93 | 1004.4 |
| 20260506190035 | 58 | 148 | 2.0 | 5.0 | 0.01 | 0.42 | 0.42 | 93 | 1004.5 |
| 20260506184543 | 58 | 134 | 2.0 | 7.0 | 0.02 | 0.42 | 0.42 | 93 | 1004.7 |
| 20260506183033 | 58 | 143 | 1.0 | 7.0 | 0.04 | 0.42 | 0.42 | 93 | 1004.7 |
| 20260506181540 | 58 | 146 | 2.0 | 8.0 | 0.05 | 0.41 | 0.41 | 93 | 1004.8 |
| 20260506180033 | 58 | 139 | 2.0 | 9.0 | 0.06 | 0.41 | 0.41 | 93 | 1004.9 |
| 20260506174536 | 57 | 231 | 3.0 | 7.0 | 0.06 | 0.40 | 0.40 | 93 | 1004.8 |
| 20260506173031 | 57 | 156 | 3.0 | 8.0 | 0.04 | 0.38 | 0.38 | 93 | 1004.9 |
| 20260506171534 | 57 | 171 | 3.0 | 9.0 | 0.03 | 0.36 | 0.36 | 92 | 1004.9 |
| 20260506170030 | 57 | 138 | 4.0 | 9.0 | 0.04 | 0.35 | 0.35 | 92 | 1004.8 |
| 20260506164543 | 57 | 134 | 6.0 | 11.0 | 0.04 | 0.34 | 0.34 | 92 | 1004.8 |
| 20260506163027 | 57 | 126 | 6.0 | 11.0 | 0.08 | 0.34 | 0.34 | 93 | 1004.8 |
| 20260506161524 | 57 | 141 | 4.0 | 12.0 | 0.12 | 0.33 | 0.33 | 92 | 1004.8 |
| 20260506160050 | 57 | 130 | 4.0 | 8.0 | 0.11 | 0.31 | 0.31 | 92 | 1004.8 |
| 20260506154503 | 57 | 150 | 6.0 | 9.0 | 0.11 | 0.28 | 0.28 | 92 | 1005.0 |
| 20260506153056 | 57 | 141 | 4.0 | 14.0 | 0.10 | 0.26 | 0.26 | 92 | 1005.2 |
| 20260506151524 | 58 | 190 | 3.0 | 9.0 | 0.07 | 0.21 | 0.21 | 91 | 1005.5 |
| 20260506150024 | 58 | 112 | 2.0 | 9.0 | 0.06 | 0.19 | 0.19 | 92 | 1005.0 |
| 20260506144525 | 58 | 157 | 4.0 | 10.0 | 0.08 | 0.18 | 0.18 | 91 | 1005.0 |
| 20260506143019 | 57 | 217 | 3.0 | 8.0 | 0.08 | 0.16 | 0.16 | 91 | 1005.3 |
| 20260506141526 | 57 | 168 | 3.0 | 9.0 | 0.08 | 0.14 | 0.14 | 91 | 1005.4 |
| 20260506140015 | 58 | 182 | 2.0 | 7.0 | 0.08 | 0.12 | 0.12 | 91 | 1005.6 |
| 20260506134515 | 58 | 184 | 3.0 | 6.0 | 0.07 | 0.10 | 0.10 | 90 | 1005.9 |
| 20260506133014 | 58 | 136 | 3.0 | 7.0 | 0.07 | 0.08 | 0.08 | 90 | 1006.0 |
| 20260506131513 | 58 | 156 | 2.0 | 7.0 | 0.05 | 0.06 | 0.06 | 88 | 1006.1 |
| 20260506130009 | 58 | 171 | 3.0 | 7.0 | 0.03 | 0.04 | 0.04 | 87 | 1006.1 |
| 20260506124506 | 59 | 135 | 3.0 | 8.0 | 0.01 | 0.02 | 0.02 | 85 | 1006.0 |
| 20260506123012 | 59 | 134 | 3.0 | 12.0 | 0.00 | 0.01 | 0.01 | 84 | 1005.9 |
| 20260506121510 | 59 | 166 | 3.0 | 9.0 | 0.01 | 0.01 | 0.01 | 83 | 1005.8 |
| 20260506120011 | 59 | 203 | 4.0 | 11.0 | 0.01 | 0.01 | 0.01 | 83 | 1005.7 |
| 20260506114503 | 59 | 171 | 3.0 | 9.0 | 0.01 | 0.01 | 0.01 | 83 | 1005.8 |
| 20260506113100 | 60 | 200 | 4.0 | 9.0 | 0.01 | 0.01 | 0.01 | 80 | 1005.8 |
| 20260506111557 | 61 | 141 | 3.0 | 11.0 | 0.00 | 0.00 | 0.00 | 75 | 1005.8 |
| 20260506110107 | 61 | 198 | 4.0 | 11.0 | 0.00 | 0.00 | 0.00 | 73 | 1005.7 |
| 20260506104611 | 61 | 125 | 4.0 | 12.0 | 0.00 | 0.00 | 0.00 | 72 | 1005.4 |
| 20260506103051 | 61 | 161 | 3.0 | 6.0 | 0.00 | 0.00 | 0.00 | 70 | 1005.2 |
| 20260506101552 | 61 | 142 | 3.0 | 5.0 | 0.00 | 0.00 | 0.00 | 69 | 1005.3 |
| 20260506100058 | 62 | 153 | 3.0 | 8.0 | 0.00 | 0.00 | 0.00 | 68 | 1005.3 |
| 20260506094550 | 62 | 152 | 4.0 | 9.0 | 0.00 | 0.00 | 0.00 | 67 | 1005.6 |
| 20260506093045 | 62 | 159 | 3.0 | 8.0 | 0.00 | 0.00 | 0.00 | 67 | 1005.6 |
| 20260506091543 | 62 | 126 | 4.0 | 9.0 | 0.00 | 0.00 | 0.00 | 67 | 1005.6 |
| 20260506090043 | 62 | 141 | 4.0 | 11.0 | 0.00 | 0.00 | 0.00 | 66 | 1005.6 |